Staples, MN

8:15 AM CDT on June 26, 2017 (GMT -0500)
Staples Municipal

Weather History for KSAZ - January, 2014

Change the Weather History Date:

Saturday, January 4, 2014

  Actual Average Record
Temperature  
Mean Temperature 5 °F -  
Max Temperature 24 °F 17 °F 41 °F (2001)
Min Temperature -16 °F 2 °F -23 °F (1999)
Degree Days  
Heating Degree Days 60    
Moisture  
Dew Point -4 °F    
Average Humidity 76    
Maximum Humidity 93    
Minimum Humidity 61    
Precipitation  
Precipitation 0.00 in - - ()
Sea Level Pressure  
Sea Level Pressure 29.91 in    
Wind  
Wind Speed 12 mph (NW)    
Max Wind Speed 25 mph    
Max Gust Speed 30 mph    
Visibility 9 miles    
Events Snow    
Averages and records for this station are not official NWS values.
T = Trace of Precipitation, MM = Missing Value Source: NWS Daily Summary

Daily Weather History Graph

Daily Weather History Graph

Search for Another Location

Airport or City:

Trip Planner

Search our weather history database for the weather conditions in past years. The results will help you decide how hot, cold, wet, or windy it might be!

Date:

Astronomy

Jan. 04, 2014 Rise Set
Actual Time 8:02 AM CST 4:46 PM CST
Civil Twilight 7:27 AM CST 5:20 PM CST
Nautical Twilight 6:49 AM CST 5:58 PM CST
Astronomical Twilight 6:13 AM CST 6:35 PM CST
Moon 9:54 AM CST (1/4) 9:23 PM CST (1/4)
Length of Visible Light 9h 52m
Length of Day
8h 43m
Waxing Crescent, 15% of the Moon is Illuminated
Jan 4
Waxing Crescent
Jan 7
First Quarter
Jan 15
Full
Jan 23
Last Quarter
Jan 30
New

Hourly Weather History & Observations

Time (CST) Temp. Windchill Dew Point Humidity Pressure Visibility Wind Dir Wind Speed Gust Speed Precip Events Conditions
12:13 AM 24.8 °F - 23.0 °F 93% 29.32 in 7.0 mi Calm Calm - N/A   Overcast
12:33 AM 24.8 °F 16.9 °F 23.0 °F 93% 29.36 in 4.0 mi NNW 6.9 mph - N/A Snow Light Snow
12:53 AM 24.8 °F 16.9 °F 23.0 °F 93% 29.36 in 3.0 mi NW 6.9 mph - N/A   Overcast
1:13 AM 24.8 °F 15.3 °F 23.0 °F 93% 29.37 in 2.0 mi NW 9.2 mph - N/A Snow Light Snow
1:33 AM 23.0 °F 8.7 °F 21.2 °F 93% 29.41 in 5.0 mi NW 18.4 mph - N/A Snow Light Snow
1:53 AM 21.2 °F 6.4 °F 19.4 °F 93% 29.44 in 7.0 mi NNW 18.4 mph 27.6 mph N/A   Overcast
2:13 AM 21.2 °F 6.8 °F 17.6 °F 86% 29.46 in 10.0 mi NNW 17.3 mph - N/A   Overcast
2:34 AM 19.4 °F 5.5 °F 17.6 °F 93% 29.48 in 10.0 mi NNW 15.0 mph 23.0 mph N/A   Overcast
2:53 AM 19.4 °F 5.0 °F 15.8 °F 86% 29.51 in 7.0 mi NNW 16.1 mph 24.2 mph N/A   Overcast
3:13 AM 17.6 °F -0.6 °F 14.0 °F 86% 29.54 in 2.0 mi NW 25.3 mph 29.9 mph N/A Snow Light Snow
3:34 AM 15.8 °F -0.2 °F 10.4 °F 79% 29.58 in 10.0 mi NW 17.3 mph - N/A   Overcast
3:53 AM 12.2 °F -1.0 °F 6.8 °F 79% 29.59 in 10.0 mi NW 10.4 mph - N/A   Overcast
4:13 AM 12.2 °F -4.3 °F 6.8 °F 79% 29.61 in 10.0 mi NW 16.1 mph 23.0 mph N/A   Mostly Cloudy
4:34 AM 10.4 °F -5.4 °F 5.0 °F 79% 29.64 in 10.0 mi NW 13.8 mph - N/A   Mostly Cloudy
4:53 AM 10.4 °F -7.2 °F 5.0 °F 79% 29.67 in 10.0 mi NW 17.3 mph 27.6 mph N/A   Overcast
5:13 AM 10.4 °F -7.7 °F 5.0 °F 79% 29.69 in 10.0 mi NW 18.4 mph 25.3 mph N/A   Overcast
5:34 AM 8.6 °F -12.3 °F 3.2 °F 79% 29.71 in 5.0 mi NW 24.2 mph 28.8 mph N/A   Haze
5:53 AM 8.6 °F -7.0 °F 3.2 °F 79% 29.73 in 10.0 mi NNW 12.7 mph 18.4 mph N/A   Overcast
6:13 AM 8.6 °F -8.3 °F 3.2 °F 79% 29.75 in 10.0 mi NNW 15.0 mph 24.2 mph N/A   Overcast
6:34 AM 8.6 °F -10.0 °F 3.2 °F 79% 29.77 in 7.0 mi NNW 18.4 mph 28.8 mph N/A   Overcast
6:52 AM 8.6 °F -8.3 °F 1.4 °F 73% 29.79 in 10.0 mi NNW 15.0 mph 25.3 mph N/A   Overcast
7:13 AM 6.8 °F -13.8 °F 1.4 °F 79% 29.81 in 7.0 mi NNW 21.9 mph 28.8 mph N/A   Overcast
7:34 AM 6.8 °F -11.8 °F -0.4 °F 72% 29.83 in 5.0 mi NNW 17.3 mph 26.5 mph N/A   Haze
7:53 AM 5.0 °F -13.0 °F -2.2 °F 72% 29.85 in 7.0 mi NNW 15.0 mph 27.6 mph N/A   Mostly Cloudy
8:13 AM 3.2 °F -15.3 °F -2.2 °F 78% 29.87 in 10.0 mi NNW 15.0 mph - N/A   Scattered Clouds
8:34 AM 3.2 °F -14.6 °F -4.0 °F 72% 29.87 in 10.0 mi NNW 13.8 mph 21.9 mph N/A   Scattered Clouds
8:53 AM 3.2 °F -12.2 °F -4.0 °F 72% 29.89 in 10.0 mi NNW 10.4 mph - N/A   Scattered Clouds
9:13 AM 3.2 °F -11.3 °F -2.2 °F 78% 29.90 in 10.0 mi NW 9.2 mph - N/A   Scattered Clouds
9:33 AM 3.2 °F -11.3 °F -2.2 °F 78% 29.91 in 10.0 mi NW 9.2 mph - N/A   Overcast
9:53 AM 3.2 °F -12.2 °F -2.2 °F 78% 29.91 in 10.0 mi WNW 10.4 mph - N/A   Mostly Cloudy
10:13 AM 3.2 °F -15.3 °F -2.2 °F 78% 29.92 in 10.0 mi NW 15.0 mph - N/A   Clear
10:33 AM 3.2 °F -15.9 °F -4.0 °F 72% 29.94 in 10.0 mi WNW 16.1 mph - N/A   Clear
10:53 AM 3.2 °F -15.9 °F -4.0 °F 72% 29.95 in 10.0 mi NW 16.1 mph 19.6 mph N/A   Clear
11:13 AM 3.2 °F -13.9 °F -4.0 °F 72% 29.95 in 10.0 mi NW 12.7 mph 19.6 mph N/A   Clear
11:33 AM 3.2 °F -12.2 °F -5.8 °F 66% 29.95 in 10.0 mi NW 10.4 mph 18.4 mph N/A   Clear
11:53 AM 3.2 °F -12.2 °F -5.8 °F 66% 29.95 in 10.0 mi WNW 10.4 mph - N/A   Clear
12:13 PM 3.2 °F -15.9 °F -5.8 °F 66% 29.95 in 10.0 mi NW 16.1 mph - N/A   Clear
12:33 PM 3.2 °F -14.6 °F -7.6 °F 61% 29.94 in 10.0 mi NNW 13.8 mph - N/A   Clear
12:53 PM 3.2 °F -13.9 °F -7.6 °F 61% 29.96 in 10.0 mi NW 12.7 mph - N/A   Clear
1:13 PM 3.2 °F -16.5 °F -7.6 °F 61% 29.97 in 10.0 mi NNW 17.3 mph 23.0 mph N/A   Clear
1:34 PM 3.2 °F -15.3 °F -7.6 °F 61% 29.99 in 10.0 mi NW 15.0 mph 20.7 mph N/A   Clear
1:53 PM 3.2 °F -13.9 °F -7.6 °F 61% 30.01 in 10.0 mi NW 12.7 mph - N/A   Clear
2:13 PM 3.2 °F -15.3 °F -7.6 °F 61% 30.01 in 10.0 mi WNW 15.0 mph - N/A   Clear
2:34 PM 1.4 °F -16.1 °F -7.6 °F 66% 30.01 in 10.0 mi NW 12.7 mph 16.1 mph N/A   Clear
2:53 PM 1.4 °F -17.6 °F -7.6 °F 66% 30.03 in 10.0 mi WNW 15.0 mph - N/A   Clear
3:13 PM 1.4 °F -18.2 °F -7.6 °F 66% 30.05 in 10.0 mi WNW 16.1 mph 19.6 mph N/A   Clear
3:34 PM 1.4 °F -13.5 °F -7.6 °F 66% 30.07 in 10.0 mi West 9.2 mph - N/A   Clear
3:53 PM -0.4 °F -18.4 °F -9.4 °F 66% 30.09 in 10.0 mi WNW 12.7 mph - N/A   Clear
4:13 PM -2.2 °F -19.9 °F -9.4 °F 71% 30.10 in 10.0 mi West 11.5 mph - N/A   Clear
4:34 PM -2.2 °F -22.2 °F -9.4 °F 71% 30.10 in 10.0 mi WNW 15.0 mph - N/A   Clear
4:53 PM -4.0 °F -23.7 °F -11.2 °F 71% 30.10 in 10.0 mi WNW 13.8 mph 18.4 mph N/A   Clear
5:13 PM -5.8 °F -24.4 °F -11.2 °F 77% 30.10 in 10.0 mi WNW 11.5 mph - N/A   Clear
5:33 PM -5.8 °F -21.2 °F -11.2 °F 77% 30.11 in 10.0 mi WNW 8.1 mph - N/A   Clear
5:53 PM -5.8 °F -24.4 °F -11.2 °F 77% 30.11 in 10.0 mi WNW 11.5 mph - N/A   Clear
6:13 PM -7.6 °F -24.6 °F -13.0 °F 77% 30.12 in 10.0 mi WNW 9.2 mph - N/A   Clear
6:33 PM -7.6 °F -24.6 °F -13.0 °F 77% 30.14 in 10.0 mi WNW 9.2 mph 12.7 mph N/A   Clear
6:53 PM -7.6 °F -27.5 °F -14.8 °F 71% 30.16 in 10.0 mi WNW 12.7 mph - N/A   Clear
7:13 PM -9.4 °F -30.6 °F -14.8 °F 77% 30.16 in 10.0 mi WNW 13.8 mph - N/A   Clear
7:33 PM -9.4 °F -26.8 °F -16.6 °F 71% 30.17 in 10.0 mi WNW 9.2 mph - N/A   Clear
7:53 PM -9.4 °F -25.6 °F -16.6 °F 71% 30.18 in 10.0 mi West 8.1 mph - N/A   Clear
8:14 PM -11.2 °F -24.8 °F -16.6 °F 77% 30.19 in 10.0 mi West 5.8 mph - N/A   Clear
8:33 PM -13.0 °F -27.0 °F -18.4 °F 77% 30.20 in 10.0 mi West 5.8 mph - N/A   Clear
8:53 PM -14.8 °F -29.1 °F -20.2 °F 77% 30.19 in 10.0 mi West 5.8 mph - N/A   Clear
9:14 PM -14.8 °F -32.2 °F -18.4 °F 84% 30.20 in 10.0 mi WNW 8.1 mph - N/A   Clear
9:33 PM -13.0 °F -31.3 °F -18.4 °F 77% 30.20 in 10.0 mi WNW 9.2 mph - N/A   Clear
9:53 PM -13.0 °F -31.3 °F -18.4 °F 77% 30.20 in 10.0 mi WNW 9.2 mph - N/A   Clear
10:14 PM -14.8 °F -34.6 °F -18.4 °F 84% 30.21 in 10.0 mi NW 10.4 mph - N/A   Clear
10:33 PM -14.8 °F -34.6 °F -18.4 °F 84% 30.21 in 10.0 mi WNW 10.4 mph - N/A   Clear
10:53 PM -14.8 °F -34.6 °F -20.2 °F 77% 30.21 in 10.0 mi NW 10.4 mph - N/A   Clear
11:13 PM -14.8 °F -36.6 °F -20.2 °F 77% 30.21 in 10.0 mi NW 12.7 mph - N/A   Clear
11:33 PM -14.8 °F -35.6 °F -20.2 °F 77% 30.22 in 10.0 mi NW 11.5 mph - N/A   Clear
11:54 PM -16.6 °F -35.7 °F -22.0 °F 76% 30.23 in 10.0 mi NW 9.2 mph - N/A   Clear